一网星座-0580星 (ONEWEB-0580 )

导读

ONEWEB-0580是由英国(GB)于2022年12月8日发射的卫星,隶属于OneWeb星座项目,该项目旨在构建全球低轨卫星互联网星座,为全球偏远地区、海洋等网络覆盖薄弱区域提供高速宽带互联网接入服务,ONEWEB-0580的成功发射进一步推进了OneWeb星座的组网进程,助力其覆盖范围与服务能力的扩展。

Basic Information
目录编号:
54648
目录名称:
ONEWEB-0580
国际标识:
2022-166G
轨道中心:
EARTH
卫星名称:
一网星座-0580星
卫星全名:
一网星座-0580星 (ONEWEB-0580 )
卫星状态:
在轨 (已飞行1374 天)
发射日期:
2022-12-08 UTC
国别 :
英国 (GB)
星等 :
--
This satellite is enrolled in the Space Conjunction Data Service (SCDS) and the current flight risk assessment level is: No High Risk
Orbit Information
数据来源 国际轨道数据 AOE轨道数据
星历时间 2026-09-11T19:00:38+0800
19小时前
查看轨道信息
2026-09-10T07:00:00+0800
2天前
查看轨道信息
半长轴 7555.895km 7555.889km
偏心率 0.0002174 0.0002458
轨道倾角 87.926° 87.924°
近地点辐角 93.310° 84.904°
升交点赤经 226.806° 227.103°
平近点角 266.828° 339.398°
近地点 1176.115km 1175.894km
远地点 1179.401km 1179.61km
周期 108.940分钟 108.940分钟
每日圈数 13.218249 13.218264
Detailed Information
平衡模式:
三轴稳定
覆盖范围:
全球
运营商:
一网卫星公司
运营商所在国:
英国
制造商(研发单位):
一网卫星公司
制造商所在国:
英国
使用方式:
暂无
Satellite Introduction
OneWeb卫星网络由648颗重约125公斤的微型卫星组成,运行在1200公里的轨道上。 每颗卫星都能够提供至少每秒8千兆位的吞吐量,以使用其高吞吐量的Ku频段有效载荷为家庭和移动平台提供互联网接入。该卫星仍在工作。
2D Orbit Map
3D Orbit Map
Orbit Altitude Analysis Chart
Orbit Inclination Analysis Chart
Orbit Comprehensive Analysis Chart
View Comprehensive Chart
Conjunction Data List
Event ID Objects TCA Miss Dist (km) Collision Risk Probability Collision Risk Index (CRI) Action
CDM_260914-095103-760005-464821
2026-09-14T
09:51:29+0000
2.127 km
极远距离
2.416057E-6 低风险 0.43
Miss Distance Evolution Trend with All Objects
Collision Probability Evolution Trend with All Objects